Location: Avully
(45.9633°N, 6.0228°E)
Time: 20:19:08
(UTC+00:00)

Cosmos 2360 Rocket - Pass Details

Date: 09 August 2024
Orbit: 834 x 843 km, 71.0° (Epoch: 10 September)

Event Time Altitude Azimuth Distance (km) Brightness Sun altitude
Exits shadow 01:26:40 42° 263° (W) 1,187 2.7 -23.9°
Maximum altitude 01:27:56 50° 302° (WNW) 1,067 2.7 -23.8°
Drops below altitude 10° 01:33:27 10° 18° (NNE) 2,469 5.7 -23.3°
Sets 01:35:59 0° 24° (NNE) 3,407 6.8 -23.1°
